Time,TemperatureF,DewpointF,PressureIn,WindDirection,WindDirectionDegrees,WindSpeedMPH,WindSpeedGustMPH,Humidity,HourlyPrecipIn,Conditions,Clouds,dailyrainin,SoftwareType,DateUTC
2013-04-08 00:02:00,34.3,33.0,29.67,ENE,68,8.6,13.0,95,0.00,CLR,,0.00,WeatherDisplay:10.37,2013-04-08 06:02:00,
2013-04-08 00:07:00,34.5,33.2,29.67,North,360,5.9,8.1,95,0.00,CLR,,0.00,WeatherDisplay:10.37,2013-04-08 06:07:00,
2013-04-08 00:12:00,34.5,33.2,29.67,East,90,7.6,9.2,95,0.00,CLR,,0.00,WeatherDisplay:10.37,2013-04-08 06:12:00,
2013-04-08 00:17:00,34.7,33.4,29.67,NE,45,6.8,8.1,95,0.00,CLR,,0.00,WeatherDisplay:10.37,2013-04-08 06:17:00,
2013-04-08 00:22:00,34.7,33.4,29.67,NNE,22,5.2,5.8,95,0.00,CLR,,0.00,WeatherDisplay:10.37,2013-04-08 06:22:00,
2013-04-08 00:27:00,34.7,33.4,29.68,NNE,22,6.9,10.4,95,0.00,CLR,,0.00,WeatherDisplay:10.37,2013-04-08 06:27:00,
2013-04-08 00:32:00,34.7,33.4,29.68,NE,45,9.1,10.4,95,0.00,CLR,,0.00,WeatherDisplay:10.37,2013-04-08 06:32:00,
2013-04-08 00:37:00,34.7,33.4,29.68,NNE,22,7.3,8.1,95,0.00,CLR,,0.00,WeatherDisplay:10.37,2013-04-08 06:37:00,
2013-04-08 00:43:00,34.9,33.6,29.68,ENE,68,9.2,11.5,95,0.00,CLR,,0.00,WeatherDisplay:10.37,2013-04-08 06:43:00,
2013-04-08 00:48:00,34.9,33.6,29.68,NE,45,4.5,6.8,95,0.00,CLR,,0.00,WeatherDisplay:10.37,2013-04-08 06:48:00,
2013-04-08 00:53:00,34.7,33.4,29.68,NNW,338,6.0,7.8,95,0.00,CLR,,0.00,WeatherDisplay:10.37,2013-04-08 06:53:00,
2013-04-08 00:58:00,34.7,33.2,29.68,NE,45,5.4,6.9,94,0.00,CLR,,0.00,WeatherDisplay:10.37,2013-04-08 06:58:00,
2013-04-08 01:03:00,34.7,33.2,29.68,SW,225,4.6,6.9,94,0.00,OVC,,0.00,WeatherDisplay:10.37,2013-04-08 07:03:00,
2013-04-08 01:08:00,34.5,33.0,29.68,NE,45,4.7,6.9,94,0.00,OVC,,0.00,WeatherDisplay:10.37,2013-04-08 07:08:00,
2013-04-08 01:13:00,34.5,33.0,29.68,NNE,22,6.0,6.3,94,0.00,OVC,,0.00,WeatherDisplay:10.37,2013-04-08 07:13:00,
2013-04-08 01:18:00,34.5,33.0,29.68,WNW,292,7.1,8.1,94,0.00,OVC,,0.00,WeatherDisplay:10.37,2013-04-08 07:18:00,
2013-04-08 01:23:00,34.3,32.8,29.68,NW,315,6.2,10.4,94,0.00,OVC,,0.00,WeatherDisplay:10.37,2013-04-08 07:23:00,
2013-04-08 01:28:00,34.3,32.8,29.68,ENE,68,5.6,12.7,94,0.00,OVC,,0.00,WeatherDisplay:10.37,2013-04-08 07:28:00,
2013-04-08 01:33:00,34.3,32.8,29.68,NE,45,6.3,7.3,94,0.00,OVC,,0.00,WeatherDisplay:10.37,2013-04-08 07:33:00,
2013-04-08 01:38:00,34.3,32.8,29.68,NE,45,9.6,11.5,94,0.00,OVC,,0.00,WeatherDisplay:10.37,2013-04-08 07:38:00,
2013-04-08 01:43:00,34.2,32.7,29.68,NE,45,9.3,10.4,94,0.00,OVC,,0.00,WeatherDisplay:10.37,2013-04-08 07:43:00,
2013-04-08 01:48:00,34.2,32.7,29.68,NNW,338,6.4,11.5,94,0.00,OVC,,0.00,WeatherDisplay:10.37,2013-04-08 07:48:00,
2013-04-08 01:53:00,34.2,32.7,29.69,NE,45,6.8,8.8,94,0.00,OVC,,0.00,WeatherDisplay:10.37,2013-04-08 07:53:00,
2013-04-08 01:58:00,34.2,32.7,29.69,NE,45,7.3,9.2,94,0.00,OVC,,0.00,WeatherDisplay:10.37,2013-04-08 07:58:00,
2013-04-08 02:03:00,34.2,32.7,29.70,NE,45,6.8,10.4,94,0.00,OVC,,0.00,WeatherDisplay:10.37,2013-04-08 08:03:00,
2013-04-08 02:08:00,34.2,32.7,29.70,SSE,158,6.6,6.9,94,0.00,OVC,,0.00,WeatherDisplay:10.37,2013-04-08 08:08:00,
2013-04-08 02:13:00,34.0,32.5,29.70,NNE,22,6.2,8.1,94,0.00,OVC,,0.00,WeatherDisplay:10.37,2013-04-08 08:13:00,
2013-04-08 02:18:00,34.0,32.5,29.70,NE,45,9.0,9.9,94,0.00,OVC,,0.00,WeatherDisplay:10.37,2013-04-08 08:18:00,
2013-04-08 02:23:00,34.0,32.5,29.70,East,90,6.6,10.4,94,0.00,OVC,,0.00,WeatherDisplay:10.37,2013-04-08 08:23:00,
2013-04-08 02:28:00,34.0,32.5,29.70,North,360,6.3,7.8,94,0.00,OVC,,0.00,WeatherDisplay:10.37,2013-04-08 08:28:00,
2013-04-08 02:33:00,33.8,32.3,29.70,NE,45,8.5,10.4,94,0.00,OVC,,0.00,WeatherDisplay:10.37,2013-04-08 08:33:00,
2013-04-08 02:39:00,33.6,32.3,29.70,North,360,7.5,10.4,95,0.00,OVC,,0.00,WeatherDisplay:10.37,2013-04-08 08:39:00,
2013-04-08 02:44:00,33.6,32.3,29.71,NNE,22,6.4,12.7,95,0.00,OVC,,0.00,WeatherDisplay:10.37,2013-04-08 08:44:00,
2013-04-08 02:49:00,33.6,32.3,29.71,NE,45,5.7,5.8,95,0.00,OVC,,0.00,WeatherDisplay:10.37,2013-04-08 08:49:00,
2013-04-08 02:54:00,33.6,32.3,29.71,NE,45,5.3,5.8,95,0.00,OVC,,0.00,WeatherDisplay:10.37,2013-04-08 08:54:00,
2013-04-08 02:59:00,33.4,32.4,29.71,NE,45,7.9,11.5,96,0.00,OVC,,0.00,WeatherDisplay:10.37,2013-04-08 08:59:00,
2013-04-08 03:04:00,33.4,32.4,29.71,NE,45,3.0,6.9,96,0.00,OVC,,0.00,WeatherDisplay:10.37,2013-04-08 09:04:00,
2013-04-08 03:09:00,33.6,32.6,29.71,NNE,22,4.9,10.4,96,0.00,OVC,,0.00,WeatherDisplay:10.37,2013-04-08 09:09:00,
2013-04-08 03:14:00,33.6,32.8,29.71,ENE,68,8.0,8.1,97,0.00,CLR,,0.00,WeatherDisplay:10.37,2013-04-08 09:14:00,
2013-04-08 03:19:00,33.4,32.6,29.71,NNE,22,7.3,10.4,97,0.00,CLR,,0.00,WeatherDisplay:10.37,2013-04-08 09:19:00,
2013-04-08 03:24:00,33.4,32.6,29.71,East,90,4.5,9.2,97,0.00,CLR,,0.00,WeatherDisplay:10.37,2013-04-08 09:24:00,
2013-04-08 03:29:00,33.4,32.6,29.70,North,360,7.2,8.3,97,0.00,CLR,,0.00,WeatherDisplay:10.37,2013-04-08 09:29:00,
2013-04-08 03:34:00,33.3,32.5,29.70,NE,45,5.8,8.8,97,0.00,CLR,,0.00,WeatherDisplay:10.37,2013-04-08 09:34:00,
2013-04-08 03:40:00,33.1,32.6,29.70,NE,45,6.4,9.2,98,0.00,CLR,,0.00,WeatherDisplay:10.37,2013-04-08 09:40:00,
2013-04-08 03:45:00,32.7,32.2,29.70,North,360,5.9,7.3,98,0.00,CLR,,0.00,WeatherDisplay:10.37,2013-04-08 09:45:00,
2013-04-08 03:50:00,32.5,32.0,29.70,ENE,68,5.4,9.9,98,0.00,CLR,,0.00,WeatherDisplay:10.37,2013-04-08 09:50:00,
2013-04-08 03:55:00,32.5,32.0,29.71,NE,45,6.1,9.4,98,0.00,-RA,,0.00,WeatherDisplay:10.37,2013-04-08 09:55:00,
2013-04-08 04:00:00,32.4,31.9,29.71,NNE,22,6.0,6.9,98,0.00,-RA,,0.00,WeatherDisplay:10.37,2013-04-08 10:00:00,
2013-04-08 04:05:00,32.4,31.9,29.71,NNE,22,7.6,9.2,98,0.00,CLR,,0.00,WeatherDisplay:10.37,2013-04-08 10:05:00,
2013-04-08 04:10:00,32.4,31.9,29.71,NE,45,6.4,8.8,98,0.00,CLR,,0.00,WeatherDisplay:10.37,2013-04-08 10:10:00,
2013-04-08 04:15:00,32.4,31.9,29.71,ENE,68,7.3,8.8,98,0.00,CLR,,0.00,WeatherDisplay:10.37,2013-04-08 10:15:00,
2013-04-08 04:20:00,32.4,31.9,29.71,ENE,68,7.2,8.8,98,0.00,CLR,,0.00,WeatherDisplay:10.37,2013-04-08 10:20:00,
2013-04-08 04:25:00,32.2,31.7,29.71,ENE,68,4.9,6.9,98,0.00,CLR,,0.00,WeatherDisplay:10.37,2013-04-08 10:25:00,
2013-04-08 04:30:00,32.0,31.5,29.71,NNE,22,7.3,11.5,98,0.00,CLR,,0.00,WeatherDisplay:10.37,2013-04-08 10:30:00,
2013-04-08 04:35:00,32.0,31.5,29.71,ENE,68,5.0,8.1,98,0.00,CLR,,0.00,WeatherDisplay:10.37,2013-04-08 10:35:00,
2013-04-08 04:40:00,32.0,31.5,29.71,ENE,68,7.4,9.9,98,0.00,CLR,,0.00,WeatherDisplay:10.37,2013-04-08 10:40:00,
2013-04-08 04:45:00,31.8,31.3,29.71,North,360,9.5,9.5,98,0.00,OVC,,0.00,WeatherDisplay:10.37,2013-04-08 10:45:00,
2013-04-08 04:51:00,31.8,31.3,29.71,NE,45,3.8,10.4,98,0.00,OVC,,0.00,WeatherDisplay:10.37,2013-04-08 10:51:00,
2013-04-08 04:56:00,31.8,31.3,29.72,NNE,22,5.9,6.9,98,0.00,OVC,,0.00,WeatherDisplay:10.37,2013-04-08 10:56:00,
2013-04-08 05:01:00,31.6,31.1,29.72,NE,45,6.1,9.9,98,0.00,OVC,,0.00,WeatherDisplay:10.37,2013-04-08 11:01:00,
2013-04-08 05:07:00,31.6,31.1,29.72,North,360,4.9,9.2,98,0.00,-SN,,0.00,WeatherDisplay:10.37,2013-04-08 11:07:00,
2013-04-08 05:12:00,31.6,31.1,29.72,SE,135,6.7,9.2,98,0.00,-SN,,0.00,WeatherDisplay:10.37,2013-04-08 11:12:00,
2013-04-08 05:17:00,31.5,31.0,29.72,ENE,68,8.0,11.5,98,0.00,-SN,,0.00,WeatherDisplay:10.37,2013-04-08 11:17:00,
2013-04-08 05:22:00,31.5,31.0,29.72,NE,45,8.7,10.4,98,0.00,-SN,,0.00,WeatherDisplay:10.37,2013-04-08 11:22:00,
2013-04-08 05:27:00,31.3,30.8,29.72,NNE,22,6.1,7.3,98,0.00,-SN,,0.00,WeatherDisplay:10.37,2013-04-08 11:27:00,
2013-04-08 05:32:00,31.3,30.5,29.73,North,360,5.6,7.3,97,0.00,-SN,,0.00,WeatherDisplay:10.37,2013-04-08 11:32:00,
2013-04-08 05:37:00,31.3,30.5,29.73,ENE,68,5.6,8.1,97,0.00,-SN,,0.00,WeatherDisplay:10.37,2013-04-08 11:37:00,
2013-04-08 05:42:00,31.3,30.5,29.73,NE,45,9.1,11.4,97,0.00,-SN,,0.00,WeatherDisplay:10.37,2013-04-08 11:42:00,
2013-04-08 05:47:00,31.3,30.5,29.73,NNE,22,9.7,13.5,97,0.00,-SN,,0.00,WeatherDisplay:10.37,2013-04-08 11:47:00,
2013-04-08 05:52:00,31.3,30.5,29.73,NNE,22,7.6,10.4,97,0.00,-SN,,0.00,WeatherDisplay:10.37,2013-04-08 11:52:00,
2013-04-08 05:57:00,31.3,30.5,29.73,ESE,112,6.2,6.9,97,0.00,-SN,,0.00,WeatherDisplay:10.37,2013-04-08 11:57:00,
2013-04-08 06:03:00,31.3,30.5,29.73,ESE,112,6.3,6.3,97,0.00,-SN,,0.00,WeatherDisplay:10.37,2013-04-08 12:03:00,
2013-04-08 06:08:00,31.3,30.5,29.74,NNE,22,7.1,10.9,97,0.00,-SN,,0.00,WeatherDisplay:10.37,2013-04-08 12:08:00,
2013-04-08 06:13:00,31.3,30.5,29.74,ENE,68,8.1,11.5,97,0.00,-SN,,0.00,WeatherDisplay:10.37,2013-04-08 12:13:00,
2013-04-08 06:18:00,31.3,30.5,29.74,East,90,6.1,7.3,97,0.00,-SN,,0.00,WeatherDisplay:10.37,2013-04-08 12:18:00,
2013-04-08 06:23:00,31.3,30.5,29.74,NNE,22,7.3,10.4,97,0.00,-SN,,0.00,WeatherDisplay:10.37,2013-04-08 12:23:00,
2013-04-08 06:28:00,31.3,30.5,29.74,ENE,68,9.4,10.4,97,0.00,-SN,,0.00,WeatherDisplay:10.37,2013-04-08 12:28:00,
2013-04-08 06:33:00,30.9,30.1,29.75,NE,45,10.3,15.0,97,0.00,-SN,,0.00,WeatherDisplay:10.37,2013-04-08 12:33:00,
2013-04-08 06:38:00,30.9,30.1,29.75,NE,45,8.2,11.4,97,0.00,-SN,,0.00,WeatherDisplay:10.37,2013-04-08 12:38:00,
2013-04-08 06:43:00,30.7,30.0,29.76,NNE,22,11.8,13.0,97,0.00,-SN,,0.00,WeatherDisplay:10.37,2013-04-08 12:43:00,
2013-04-08 06:48:00,30.4,29.7,29.76,NE,45,11.8,16.1,97,0.00,-SN,,0.00,WeatherDisplay:10.37,2013-04-08 12:48:00,
2013-04-08 06:53:00,30.2,29.5,29.76,NE,45,14.9,18.4,97,0.00,-SN,,0.00,WeatherDisplay:10.37,2013-04-08 12:53:00,
2013-04-08 06:58:00,30.2,29.2,29.76,NE,45,12.9,16.1,96,0.00,-SN,,0.00,WeatherDisplay:10.37,2013-04-08 12:58:00,
2013-04-08 07:03:00,29.8,28.8,29.76,NE,45,12.3,13.8,96,0.00,-SN,,0.00,WeatherDisplay:10.37,2013-04-08 13:03:00,
2013-04-08 07:08:00,29.7,28.7,29.77,ENE,68,11.1,15.0,96,0.00,-SN,,0.00,WeatherDisplay:10.37,2013-04-08 13:08:00,
2013-04-08 07:13:00,29.3,28.3,29.77,NE,45,11.9,17.1,96,0.00,-SN,,0.00,WeatherDisplay:10.37,2013-04-08 13:13:00,
2013-04-08 07:18:00,28.8,27.8,29.77,NNE,22,16.4,17.3,96,0.00,-SN,,0.00,WeatherDisplay:10.37,2013-04-08 13:18:00,
2013-04-08 07:23:00,28.2,27.0,29.77,ENE,68,14.4,16.1,95,0.00,-SN,,0.00,WeatherDisplay:10.37,2013-04-08 13:23:00,
2013-04-08 07:28:00,27.9,26.7,29.77,NE,45,13.1,15.0,95,0.00,-SN,,0.00,WeatherDisplay:10.37,2013-04-08 13:28:00,
2013-04-08 07:33:00,27.7,26.5,29.78,NE,45,10.5,16.1,95,0.00,-SN,,0.00,WeatherDisplay:10.37,2013-04-08 13:33:00,
2013-04-08 07:38:00,27.3,26.1,29.78,NE,45,12.1,19.6,95,0.00,-SN,,0.00,WeatherDisplay:10.37,2013-04-08 13:38:00,
2013-04-08 07:43:00,26.8,25.6,29.79,SE,135,10.3,12.7,95,0.00,-SN,,0.00,WeatherDisplay:10.37,2013-04-08 13:43:00,
2013-04-08 07:48:00,25.7,24.2,29.79,ENE,68,8.7,17.1,94,0.00,-SN,,0.00,WeatherDisplay:10.37,2013-04-08 13:48:00,
2013-04-08 07:53:00,25.3,23.8,29.80,NE,45,15.7,17.3,94,0.00,-SN,,0.00,WeatherDisplay:10.37,2013-04-08 13:53:00,
2013-04-08 07:58:00,25.0,23.5,29.80,ENE,68,8.8,12.7,94,0.00,-SN,,0.00,WeatherDisplay:10.37,2013-04-08 13:58:00,
2013-04-08 08:03:00,25.0,23.5,29.82,NE,45,12.3,15.0,94,0.00,-SN,,0.00,WeatherDisplay:10.37,2013-04-08 14:03:00,
2013-04-08 08:08:00,24.4,22.7,29.82,NE,45,8.6,12.7,93,0.00,-SN,,0.00,WeatherDisplay:10.37,2013-04-08 14:08:00,
2013-04-08 08:13:00,23.9,21.9,29.82,NNE,22,12.7,18.4,92,0.00,-SN,,0.00,WeatherDisplay:10.37,2013-04-08 14:13:00,
2013-04-08 08:18:00,23.7,21.7,29.83,NE,45,11.3,16.0,92,0.00,-SN,,0.00,WeatherDisplay:10.37,2013-04-08 14:18:00,
2013-04-08 08:23:00,23.4,21.7,29.83,NNE,22,11.9,12.4,93,0.00,-SN,,0.00,WeatherDisplay:10.37,2013-04-08 14:23:00,
2013-04-08 08:28:00,23.2,21.5,29.83,ENE,68,9.3,17.3,93,0.00,-SN,,0.00,WeatherDisplay:10.37,2013-04-08 14:28:00,
2013-04-08 08:33:00,22.8,21.1,29.83,NE,45,12.0,16.1,93,0.00,-SN,,0.00,WeatherDisplay:10.37,2013-04-08 14:33:00,
2013-04-08 08:38:00,22.6,20.6,29.83,ENE,68,12.6,20.7,92,0.00,-SN,,0.00,WeatherDisplay:10.37,2013-04-08 14:38:00,
2013-04-08 08:43:00,22.5,20.5,29.84,NE,45,12.2,15.0,92,0.00,-SN,,0.00,WeatherDisplay:10.37,2013-04-08 14:43:00,
2013-04-08 08:48:00,22.5,20.5,29.84,North,360,10.2,12.7,92,0.00,-SN,,0.00,WeatherDisplay:10.37,2013-04-08 14:48:00,
2013-04-08 08:53:00,22.3,20.3,29.85,NNE,22,11.9,16.1,92,0.00,-SN,,0.00,WeatherDisplay:10.37,2013-04-08 14:53:00,
2013-04-08 08:58:00,22.3,20.3,29.85,North,360,9.5,12.7,92,0.00,-SN,,0.00,WeatherDisplay:10.37,2013-04-08 14:58:00,
2013-04-08 09:03:00,22.3,20.3,29.87,ENE,68,8.8,10.4,92,0.00,-SN,,0.00,WeatherDisplay:10.37,2013-04-08 15:03:00,
2013-04-08 09:08:00,22.3,20.3,29.87,NNE,22,13.6,16.1,92,0.00,-SN,,0.00,WeatherDisplay:10.37,2013-04-08 15:08:00,
2013-04-08 09:13:00,22.1,20.1,29.87,NNE,22,9.7,15.0,92,0.00,OVC,,0.00,WeatherDisplay:10.37,2013-04-08 15:13:00,
2013-04-08 09:18:00,21.6,19.6,29.88,NNE,22,13.5,18.1,92,0.00,OVC,,0.00,WeatherDisplay:10.37,2013-04-08 15:18:00,
2013-04-08 09:23:00,21.4,19.4,29.88,NE,45,11.5,21.9,92,0.00, +SN,,0.00,WeatherDisplay:10.37,2013-04-08 15:23:00,
2013-04-08 09:28:00,21.4,19.4,29.89,NE,45,15.7,19.6,92,0.00, +SN,,0.00,WeatherDisplay:10.37,2013-04-08 15:28:00,
2013-04-08 09:33:00,21.4,19.9,29.89,ENE,68,10.1,13.8,94,0.00, +SN,,0.00,WeatherDisplay:10.37,2013-04-08 15:33:00,
2013-04-08 09:38:00,21.4,19.9,29.89,NE,45,10.5,10.5,94,0.00, +SN,,0.00,WeatherDisplay:10.37,2013-04-08 15:38:00,
2013-04-08 09:43:00,21.6,20.1,29.90,NE,45,8.6,16.1,94,0.00, +SN,,0.00,WeatherDisplay:10.37,2013-04-08 15:43:00,
2013-04-08 09:48:00,21.6,20.1,29.90,ENE,68,7.4,12.7,94,0.00, +SN,,0.00,WeatherDisplay:10.37,2013-04-08 15:48:00,
2013-04-08 09:53:00,21.4,19.9,29.91,NNE,22,8.2,12.7,94,0.00, +SN,,0.00,WeatherDisplay:10.37,2013-04-08 15:53:00,
2013-04-08 09:58:00,21.4,19.9,29.91,NNE,22,6.9,11.5,94,0.00, +SN,,0.00,WeatherDisplay:10.37,2013-04-08 15:58:00,
2013-04-08 10:03:00,21.6,20.1,29.91,SSE,158,5.0,6.9,94,0.00,CLR,,0.00,WeatherDisplay:10.37,2013-04-08 16:03:00,
2013-04-08 10:09:00,21.9,20.4,29.93,NNE,22,7.3,9.2,94,0.00,CLR,,0.00,WeatherDisplay:10.37,2013-04-08 16:09:00,
2013-04-08 10:15:00,21.4,19.9,29.94,NE,45,9.1,15.5,94,0.00,CLR,,0.00,WeatherDisplay:10.37,2013-04-08 16:15:00,
2013-04-08 10:20:00,21.2,19.7,29.94,NNE,22,9.6,10.4,94,0.00,CLR,,0.00,WeatherDisplay:10.37,2013-04-08 16:20:00,
2013-04-08 10:25:00,21.4,19.9,29.94,NE,45,6.4,10.4,94,0.00,CLR,,0.00,WeatherDisplay:10.37,2013-04-08 16:25:00,
2013-04-08 10:30:00,21.4,19.9,29.96,NE,45,6.9,10.4,94,0.00,CLR,,0.00,WeatherDisplay:10.37,2013-04-08 16:30:00,
2013-04-08 10:35:00,21.0,19.3,29.96,East,90,9.1,11.5,93,0.00,CLR,,0.00,WeatherDisplay:10.37,2013-04-08 16:35:00,
2013-04-08 10:40:00,21.0,19.3,29.97,East,90,5.9,5.9,93,0.00,CLR,,0.00,WeatherDisplay:10.37,2013-04-08 16:40:00,
2013-04-08 10:45:00,21.0,19.3,29.97,NE,45,7.6,12.7,93,0.00,CLR,,0.00,WeatherDisplay:10.37,2013-04-08 16:45:00,
2013-04-08 10:50:00,20.7,19.0,29.97,NNW,338,10.0,10.4,93,0.00,CLR,,0.00,WeatherDisplay:10.37,2013-04-08 16:50:00,
2013-04-08 10:55:00,21.0,19.3,29.97,NE,45,7.5,9.2,93,0.00,CLR,,0.00,WeatherDisplay:10.37,2013-04-08 16:55:00,
2013-04-08 11:00:00,21.0,19.3,29.97,NNW,338,7.7,9.9,93,0.00,CLR,,0.00,WeatherDisplay:10.37,2013-04-08 17:00:00,
2013-04-08 11:06:00,20.7,18.7,29.98,NW,315,8.8,12.7,92,0.00,CLR,,0.00,WeatherDisplay:10.37,2013-04-08 17:06:00,
2013-04-08 11:11:00,20.5,18.5,29.98,NE,45,6.6,12.7,92,0.00,CLR,,0.00,WeatherDisplay:10.37,2013-04-08 17:11:00,
2013-04-08 11:16:00,20.3,18.3,29.99,NNW,338,6.4,11.5,92,0.00,CLR,,0.00,WeatherDisplay:10.37,2013-04-08 17:16:00,
2013-04-08 11:21:00,20.5,18.5,29.99,North,360,7.2,8.1,92,0.00,CLR,,0.00,WeatherDisplay:10.37,2013-04-08 17:21:00,
2013-04-08 11:26:00,19.9,17.7,29.99,NE,45,7.4,11.5,91,0.00,CLR,,0.00,WeatherDisplay:10.37,2013-04-08 17:26:00,
2013-04-08 11:31:00,19.9,17.7,29.99,NE,45,7.7,9.2,91,0.00,CLR,,0.00,WeatherDisplay:10.37,2013-04-08 17:31:00,
2013-04-08 11:36:00,19.9,17.7,29.99,NE,45,11.5,13.8,91,0.00,CLR,,0.00,WeatherDisplay:10.37,2013-04-08 17:36:00,
2013-04-08 11:41:00,20.7,18.7,30.00,NNE,22,4.2,7.3,92,0.00,CLR,,0.00,WeatherDisplay:10.37,2013-04-08 17:41:00,
2013-04-08 11:46:00,20.5,18.3,30.00,NE,45,6.1,9.2,91,0.00,CLR,,0.00,WeatherDisplay:10.37,2013-04-08 17:46:00,
2013-04-08 11:51:00,20.1,17.6,30.00,NE,45,9.6,11.5,90,0.00,CLR,,0.00,WeatherDisplay:10.37,2013-04-08 17:51:00,
2013-04-08 11:56:00,20.5,18.0,30.01,NE,45,4.5,9.2,90,0.00,CLR,,0.00,WeatherDisplay:10.37,2013-04-08 17:56:00,
2013-04-08 12:01:00,20.5,18.0,30.01,NE,45,7.6,10.4,90,0.00,CLR,,0.00,WeatherDisplay:10.37,2013-04-08 18:01:00,
2013-04-08 12:06:00,20.5,18.0,30.02,NE,45,7.9,9.2,90,0.00,CLR,,0.00,WeatherDisplay:10.37,2013-04-08 18:06:00,
2013-04-08 12:11:00,20.1,17.6,30.02,North,360,7.9,11.4,90,0.00,CLR,,0.00,WeatherDisplay:10.37,2013-04-08 18:11:00,
2013-04-08 12:16:00,20.1,17.6,30.03,NNE,22,6.1,10.4,90,0.00,CLR,,0.00,WeatherDisplay:10.37,2013-04-08 18:16:00,
2013-04-08 12:21:00,20.5,17.8,30.03,ENE,68,8.0,15.0,89,0.00,CLR,,0.00,WeatherDisplay:10.37,2013-04-08 18:21:00,
2013-04-08 12:27:00,19.8,16.8,30.03,East,90,11.8,14.0,88,0.00,CLR,,0.00,WeatherDisplay:10.37,2013-04-08 18:27:00,
2013-04-08 12:32:00,21.2,18.2,30.03,ENE,68,6.5,6.9,88,0.00,CLR,,0.00,WeatherDisplay:10.37,2013-04-08 18:32:00,
2013-04-08 12:37:00,21.7,18.7,30.03,NNE,22,6.2,8.1,88,0.00,CLR,,0.00,WeatherDisplay:10.37,2013-04-08 18:37:00,
2013-04-08 12:42:00,21.4,17.9,30.04,NE,45,9.0,11.9,86,0.00,CLR,,0.00,WeatherDisplay:10.37,2013-04-08 18:42:00,
2013-04-08 12:47:00,21.4,17.6,30.04,NE,45,9.3,13.8,85,0.00,CLR,,0.00,WeatherDisplay:10.37,2013-04-08 18:47:00,
2013-04-08 12:52:00,21.7,18.2,30.04,NE,45,9.1,13.0,86,0.00,CLR,,0.00,WeatherDisplay:10.37,2013-04-08 18:52:00,
2013-04-08 12:57:00,21.9,18.1,30.04,NNW,338,10.9,10.9,85,0.00,CLR,,0.00,WeatherDisplay:10.37,2013-04-08 18:57:00,
2013-04-08 13:02:00,21.9,17.8,30.04,NE,45,10.2,12.7,84,0.00,CLR,,0.00,WeatherDisplay:10.37,2013-04-08 19:02:00,
2013-04-08 13:07:00,22.8,18.7,30.04,NNE,22,8.1,14.0,84,0.00,CLR,,0.00,WeatherDisplay:10.37,2013-04-08 19:07:00,
2013-04-08 13:12:00,22.3,18.2,30.04,North,360,9.2,12.7,84,0.00,CLR,,0.00,WeatherDisplay:10.37,2013-04-08 19:12:00,
2013-04-08 13:17:00,22.6,18.2,30.04,NNE,22,8.4,9.2,83,0.00,CLR,,0.00,WeatherDisplay:10.37,2013-04-08 19:17:00,
2013-04-08 13:22:00,22.6,18.2,30.04,NE,45,8.0,10.4,83,0.00,OVC,,0.00,WeatherDisplay:10.37,2013-04-08 19:22:00,
2013-04-08 13:27:00,22.8,18.1,30.04,NNE,22,10.8,12.4,82,0.00,OVC,,0.00,WeatherDisplay:10.37,2013-04-08 19:27:00,
2013-04-08 13:33:00,23.2,18.2,30.04,NW,315,6.9,8.8,81,0.00,OVC,,0.00,WeatherDisplay:10.37,2013-04-08 19:33:00,
2013-04-08 13:38:00,22.6,17.6,30.04,NNE,22,8.2,13.8,81,0.00,OVC,,0.00,WeatherDisplay:10.37,2013-04-08 19:38:00,
2013-04-08 13:43:00,21.7,16.2,30.05,NE,45,13.3,17.3,79,0.00,OVC,,0.00,WeatherDisplay:10.37,2013-04-08 19:43:00,
2013-04-08 13:48:00,22.3,16.8,30.05,ENE,68,10.0,12.7,79,0.00,OVC,,0.00,WeatherDisplay:10.37,2013-04-08 19:48:00,
2013-04-08 13:53:00,21.4,16.2,30.06,NE,45,8.5,13.8,80,0.00,OVC,,0.00,WeatherDisplay:10.37,2013-04-08 19:53:00,
2013-04-08 13:58:00,20.8,15.9,30.06,NNW,338,13.7,17.3,81,0.00,OVC,,0.00,WeatherDisplay:10.37,2013-04-08 19:58:00,
2013-04-08 14:03:00,21.0,16.4,30.06,NNE,22,11.0,16.1,82,0.00,OVC,,0.00,WeatherDisplay:10.37,2013-04-08 20:03:00,
2013-04-08 14:08:00,21.0,16.1,30.06,NE,45,11.0,18.4,81,0.00,OVC,,0.00,WeatherDisplay:10.37,2013-04-08 20:08:00,
2013-04-08 14:13:00,21.4,16.5,30.06,NE,45,9.7,10.4,81,0.00,OVC,,0.00,WeatherDisplay:10.37,2013-04-08 20:13:00,
2013-04-08 14:18:00,20.7,15.5,30.06,WNW,292,11.2,12.7,80,0.00,OVC,,0.00,WeatherDisplay:10.37,2013-04-08 20:18:00,
2013-04-08 14:23:00,21.0,15.5,30.06,NE,45,12.9,15.0,79,0.00,OVC,,0.00,WeatherDisplay:10.37,2013-04-08 20:23:00,
2013-04-08 14:28:00,20.5,15.0,30.06,NE,45,12.9,16.1,79,0.00,OVC,,0.00,WeatherDisplay:10.37,2013-04-08 20:28:00,
2013-04-08 14:33:00,20.3,15.4,30.07,NE,45,9.8,15.0,81,0.00,OVC,,0.00,WeatherDisplay:10.37,2013-04-08 20:33:00,
2013-04-08 14:38:00,20.3,15.7,30.07,NE,45,10.3,12.7,82,0.00,OVC,,0.00,WeatherDisplay:10.37,2013-04-08 20:38:00,
2013-04-08 14:43:00,20.5,15.6,30.08,NNW,338,9.6,12.7,81,0.00,OVC,,0.00,WeatherDisplay:10.37,2013-04-08 20:43:00,
2013-04-08 14:48:00,20.5,14.7,30.08,NNE,22,8.8,13.8,78,0.00,OVC,,0.00,WeatherDisplay:10.37,2013-04-08 20:48:00,
2013-04-08 14:53:00,20.5,15.0,30.09,NE,45,10.1,12.7,79,0.00,OVC,,0.00,WeatherDisplay:10.37,2013-04-08 20:53:00,
2013-04-08 14:58:00,21.4,15.9,30.09,NNE,22,6.2,6.9,79,0.00,OVC,,0.00,WeatherDisplay:10.37,2013-04-08 20:58:00,
2013-04-08 15:03:00,20.8,15.3,30.09,NE,45,10.5,13.8,79,0.00,OVC,,0.00,WeatherDisplay:10.37,2013-04-08 21:03:00,
2013-04-08 15:08:00,21.6,16.1,30.08,NNE,22,5.6,10.4,79,0.00,OVC,,0.00,WeatherDisplay:10.37,2013-04-08 21:08:00,
2013-04-08 15:13:00,21.2,15.7,30.08,North,360,12.9,15.0,79,0.00,OVC,,0.00,WeatherDisplay:10.37,2013-04-08 21:13:00,
2013-04-08 15:18:00,21.9,16.7,30.08,ENE,68,8.2,9.2,80,0.00,OVC,,0.00,WeatherDisplay:10.37,2013-04-08 21:18:00,
2013-04-08 15:23:00,21.0,15.2,30.08,NE,45,12.7,13.8,78,0.00,OVC,,0.00,WeatherDisplay:10.37,2013-04-08 21:23:00,
2013-04-08 15:28:00,23.0,16.9,30.08,WNW,292,9.6,11.5,77,0.00,OVC,,0.00,WeatherDisplay:10.37,2013-04-08 21:28:00,
2013-04-08 15:33:00,22.5,16.7,30.08,WNW,292,9.3,13.8,78,0.00,OVC,,0.00,WeatherDisplay:10.37,2013-04-08 21:33:00,
2013-04-08 15:38:00,21.4,15.6,30.08,NNE,22,7.1,13.8,78,0.00,OVC,,0.00,WeatherDisplay:10.37,2013-04-08 21:38:00,
2013-04-08 15:43:00,20.7,14.9,30.10,NNE,22,12.0,15.0,78,0.00,OVC,,0.00,WeatherDisplay:10.37,2013-04-08 21:43:00,
2013-04-08 15:48:00,20.8,14.7,30.10,NE,45,10.2,11.5,77,0.00,OVC,,0.00,WeatherDisplay:10.37,2013-04-08 21:48:00,
2013-04-08 15:53:00,21.2,15.7,30.11,NNE,22,8.7,10.4,79,0.00,OVC,,0.00,WeatherDisplay:10.37,2013-04-08 21:53:00,
2013-04-08 15:58:00,21.0,15.5,30.11,NE,45,8.6,10.4,79,0.00,OVC,,0.00,WeatherDisplay:10.37,2013-04-08 21:58:00,
2013-04-08 16:03:00,20.8,15.3,30.11,NE,45,6.8,8.3,79,0.00,OVC,,0.00,WeatherDisplay:10.37,2013-04-08 22:03:00,
2013-04-08 16:08:00,21.0,15.8,30.11,NE,45,6.5,6.9,80,0.00,OVC,,0.00,WeatherDisplay:10.37,2013-04-08 22:08:00,
2013-04-08 16:13:00,20.1,14.6,30.11,NE,45,6.8,11.5,79,0.00,OVC,,0.00,WeatherDisplay:10.37,2013-04-08 22:13:00,
2013-04-08 16:18:00,19.8,14.0,30.12,NE,45,8.4,12.7,78,0.00,OVC,,0.00,WeatherDisplay:10.37,2013-04-08 22:18:00,
2013-04-08 16:23:00,19.9,14.4,30.12,ENE,68,9.0,11.5,79,0.00,OVC,,0.00,WeatherDisplay:10.37,2013-04-08 22:23:00,
2013-04-08 16:28:00,19.8,14.6,30.12,ENE,68,8.9,12.7,80,0.00,OVC,,0.00,WeatherDisplay:10.37,2013-04-08 22:28:00,
2013-04-08 16:34:00,19.6,13.9,30.12,NNE,22,11.4,16.6,78,0.00,OVC,,0.00,WeatherDisplay:10.37,2013-04-08 22:34:00,
2013-04-08 16:39:00,19.8,14.0,30.12,NE,45,6.7,8.8,78,0.00,OVC,,0.00,WeatherDisplay:10.37,2013-04-08 22:39:00,
2013-04-08 16:44:00,19.6,13.9,30.12,NNE,22,7.4,10.4,78,0.00,OVC,,0.00,WeatherDisplay:10.37,2013-04-08 22:44:00,
2013-04-08 16:49:00,20.3,15.1,30.12,NNE,22,5.8,6.9,80,0.00,OVC,,0.00,WeatherDisplay:10.37,2013-04-08 22:49:00,
2013-04-08 16:54:00,19.6,14.1,30.12,NE,45,11.4,13.8,79,0.00,OVC,,0.00,WeatherDisplay:10.37,2013-04-08 22:54:00,
2013-04-08 16:59:00,19.4,13.9,30.12,NE,45,10.9,15.0,79,0.00,OVC,,0.00,WeatherDisplay:10.37,2013-04-08 22:59:00,
2013-04-08 17:04:00,19.4,13.7,30.13,NNE,22,9.4,12.7,78,0.00,OVC,,0.00,WeatherDisplay:10.37,2013-04-08 23:04:00,
2013-04-08 17:09:00,19.2,13.8,30.13,NNE,22,12.2,12.7,79,0.00,OVC,,0.00,WeatherDisplay:10.37,2013-04-08 23:09:00,
2013-04-08 17:14:00,18.9,13.5,30.13,NNE,22,10.1,13.8,79,0.00,OVC,,0.00,WeatherDisplay:10.37,2013-04-08 23:14:00,
2013-04-08 17:19:00,18.9,13.2,30.14,NNW,338,10.1,13.8,78,0.00,OVC,,0.00,WeatherDisplay:10.37,2013-04-08 23:19:00,
2013-04-08 17:24:00,19.4,13.7,30.14,NNW,338,4.3,10.4,78,0.00,OVC,,0.00,WeatherDisplay:10.37,2013-04-08 23:24:00,
2013-04-08 17:29:00,19.2,13.5,30.14,NE,45,8.3,12.7,78,0.00,OVC,,0.00,WeatherDisplay:10.37,2013-04-08 23:29:00,
2013-04-08 17:34:00,19.4,13.7,30.14,NE,45,7.8,8.1,78,0.00,OVC,,0.00,WeatherDisplay:10.37,2013-04-08 23:34:00,
2013-04-08 17:39:00,19.0,13.3,30.14,NNE,22,8.3,10.4,78,0.00,OVC,,0.00,WeatherDisplay:10.37,2013-04-08 23:39:00,
2013-04-08 17:45:00,19.4,13.7,30.14,NNE,22,5.7,8.3,78,0.00,OVC,,0.00,WeatherDisplay:10.37,2013-04-08 23:45:00,
2013-04-08 17:50:00,18.9,13.2,30.14,NNE,22,6.9,10.4,78,0.00,OVC,,0.00,WeatherDisplay:10.37,2013-04-08 23:50:00,
2013-04-08 17:55:00,18.7,13.3,30.14,SSW,202,10.7,12.4,79,0.00,OVC,,0.00,WeatherDisplay:10.37,2013-04-08 23:55:00,
2013-04-08 18:00:00,18.9,13.5,30.14,NNE,22,7.7,12.4,79,0.00,OVC,,0.00,WeatherDisplay:10.37,2013-04-09 00:00:00,
2013-04-08 18:05:00,18.9,13.5,30.14,NE,45,9.1,10.9,79,0.00,OVC,,0.00,WeatherDisplay:10.37,2013-04-09 00:05:00,
2013-04-08 18:10:00,18.7,13.0,30.14,NE,45,9.5,10.9,78,0.00,OVC,,0.00,WeatherDisplay:10.37,2013-04-09 00:10:00,
2013-04-08 18:15:00,18.7,13.0,30.16,NE,45,6.4,9.2,78,0.00,OVC,,0.00,WeatherDisplay:10.37,2013-04-09 00:15:00,
2013-04-08 18:20:00,18.7,13.3,30.16,NE,45,8.5,9.9,79,0.00,OVC,,0.00,WeatherDisplay:10.37,2013-04-09 00:20:00,
2013-04-08 18:25:00,18.7,13.0,30.16,North,360,7.8,8.1,78,0.00,OVC,,0.00,WeatherDisplay:10.37,2013-04-09 00:25:00,
2013-04-08 18:30:00,18.7,13.3,30.16,ENE,68,5.0,6.9,79,0.00,OVC,,0.00,WeatherDisplay:10.37,2013-04-09 00:30:00,
2013-04-08 18:35:00,18.9,13.5,30.16,NNE,22,6.5,7.8,79,0.00,OVC,,0.00,WeatherDisplay:10.37,2013-04-09 00:35:00,
2013-04-08 18:40:00,18.5,13.4,30.17,NNE,22,7.1,9.2,80,0.00,OVC,,0.00,WeatherDisplay:10.37,2013-04-09 00:40:00,
2013-04-08 18:45:00,18.3,13.4,30.17,NNE,22,7.0,8.3,81,0.00,OVC,,0.00,WeatherDisplay:10.37,2013-04-09 00:45:00,
2013-04-08 18:50:00,18.3,13.4,30.17,NE,45,3.9,6.9,81,0.00,OVC,,0.00,WeatherDisplay:10.37,2013-04-09 00:50:00,
2013-04-08 18:55:00,18.1,13.3,30.17,ENE,68,7.8,11.4,81,0.00,OVC,,0.00,WeatherDisplay:10.37,2013-04-09 00:55:00,
2013-04-08 19:00:00,18.0,12.3,30.17,ENE,68,7.4,10.4,78,0.00,OVC,,0.00,WeatherDisplay:10.37,2013-04-09 01:00:00,
2013-04-08 19:05:00,17.8,11.8,30.17,NW,315,7.5,8.1,77,0.00,OVC,,0.00,WeatherDisplay:10.37,2013-04-09 01:05:00,
2013-04-08 19:10:00,17.8,11.8,30.17,ENE,68,5.4,9.2,77,0.00,OVC,,0.00,WeatherDisplay:10.37,2013-04-09 01:10:00,
2013-04-08 19:15:00,17.6,11.6,30.17,North,360,6.1,10.4,77,0.00,OVC,,0.00,WeatherDisplay:10.37,2013-04-09 01:15:00,
2013-04-08 19:21:00,17.6,11.6,30.17,NNE,22,5.3,9.2,77,0.00,OVC,,0.00,WeatherDisplay:10.37,2013-04-09 01:21:00,
2013-04-08 19:26:00,17.6,11.9,30.17,NE,45,6.9,9.4,78,0.00,OVC,,0.00,WeatherDisplay:10.37,2013-04-09 01:26:00,
2013-04-08 19:31:00,17.4,11.7,30.17,NNE,22,8.5,9.2,78,0.00,OVC,,0.00,WeatherDisplay:10.37,2013-04-09 01:31:00,
2013-04-08 19:36:00,17.4,11.4,30.17,NNW,338,8.8,11.9,77,0.00,-SN,,0.00,WeatherDisplay:10.37,2013-04-09 01:36:00,
2013-04-08 19:41:00,17.4,11.7,30.18,WNW,292,6.4,10.4,78,0.00,-SN,,0.00,WeatherDisplay:10.37,2013-04-09 01:41:00,
2013-04-08 19:46:00,17.4,12.0,30.18,NNE,22,4.0,5.8,79,0.00,-SN,,0.00,WeatherDisplay:10.37,2013-04-09 01:46:00,
2013-04-08 19:51:00,17.4,11.7,30.18,ENE,68,6.7,8.1,78,0.00,-SN,,0.00,WeatherDisplay:10.37,2013-04-09 01:51:00,
2013-04-08 19:57:00,17.2,11.8,30.18,NNE,22,7.6,9.2,79,0.00,-SN,,0.00,WeatherDisplay:10.37,2013-04-09 01:57:00,
2013-04-08 20:02:00,16.9,11.5,30.18,NE,45,8.2,10.4,79,0.00,-SN,,0.00,WeatherDisplay:10.37,2013-04-09 02:02:00,
2013-04-08 20:07:00,16.7,11.6,30.19,NNW,338,7.0,8.3,80,0.00,-SN,,0.00,WeatherDisplay:10.37,2013-04-09 02:07:00,
2013-04-08 20:12:00,16.5,11.4,30.19,North,360,6.7,7.8,80,0.00,-SN,,0.00,WeatherDisplay:10.37,2013-04-09 02:12:00,
2013-04-08 20:17:00,16.3,11.5,30.20,NNE,22,6.1,6.8,81,0.00,-SN,,0.00,WeatherDisplay:10.37,2013-04-09 02:17:00,
2013-04-08 20:22:00,16.0,11.2,30.20,NE,45,5.6,8.3,81,0.00,-SN,,0.00,WeatherDisplay:10.37,2013-04-09 02:22:00,
2013-04-08 20:27:00,15.8,11.3,30.21,North,360,7.1,8.1,82,0.00,-SN,,0.00,WeatherDisplay:10.37,2013-04-09 02:27:00,
2013-04-08 20:32:00,15.6,11.1,30.21,NW,315,6.0,10.4,82,0.00,-SN,,0.00,WeatherDisplay:10.37,2013-04-09 02:32:00,
2013-04-08 20:37:00,15.6,11.4,30.21,North,360,7.9,10.4,83,0.00,-SN,,0.00,WeatherDisplay:10.37,2013-04-09 02:37:00,
2013-04-08 20:42:00,15.4,11.4,30.22,NNE,22,6.5,7.3,84,0.00,-SN,,0.00,WeatherDisplay:10.37,2013-04-09 02:42:00,
2013-04-08 20:48:00,15.4,11.2,30.22,NE,45,12.0,12.0,83,0.00,-SN,,0.00,WeatherDisplay:10.37,2013-04-09 02:48:00,
2013-04-08 20:53:00,15.4,11.2,30.22,NE,45,6.1,9.2,83,0.00,-SN,,0.00,WeatherDisplay:10.37,2013-04-09 02:53:00,
2013-04-08 20:58:00,15.4,10.9,30.22,NNE,22,8.0,10.4,82,0.00,-SN,,0.00,WeatherDisplay:10.37,2013-04-09 02:58:00,
2013-04-08 21:03:00,15.3,10.8,30.22,WNW,292,7.8,11.5,82,0.00,-SN,,0.00,WeatherDisplay:10.37,2013-04-09 03:03:00,
2013-04-08 21:08:00,14.9,10.1,30.23,NNE,22,6.4,6.9,81,0.00,-SN,,0.00,WeatherDisplay:10.37,2013-04-09 03:08:00,
2013-04-08 21:13:00,14.5,9.7,30.23,West,270,5.7,9.2,81,0.00,-SN,,0.00,WeatherDisplay:10.37,2013-04-09 03:13:00,
2013-04-08 21:18:00,14.4,9.6,30.23,NNW,338,6.3,9.4,81,0.00,-SN,,0.00,WeatherDisplay:10.37,2013-04-09 03:18:00,
2013-04-08 21:23:00,14.0,9.2,30.23,NNE,22,8.1,9.2,81,0.00,-SN,,0.00,WeatherDisplay:10.37,2013-04-09 03:23:00,
2013-04-08 21:28:00,14.0,9.2,30.24,NNE,22,6.8,6.9,81,0.00,-SN,,0.00,WeatherDisplay:10.37,2013-04-09 03:28:00,
2013-04-08 21:33:00,13.8,9.0,30.24,NNW,338,5.9,9.2,81,0.00,-SN,,0.00,WeatherDisplay:10.37,2013-04-09 03:33:00,
2013-04-08 21:38:00,13.8,9.3,30.24,North,360,5.0,9.2,82,0.00,-SN,,0.00,WeatherDisplay:10.37,2013-04-09 03:38:00,
2013-04-08 21:43:00,13.6,9.4,30.25,North,360,5.4,8.1,83,0.00,-SN,,0.00,WeatherDisplay:10.37,2013-04-09 03:43:00,
2013-04-08 21:48:00,13.6,9.4,30.25,NNW,338,6.3,6.9,83,0.00,-SN,,0.00,WeatherDisplay:10.37,2013-04-09 03:48:00,
2013-04-08 21:53:00,13.6,9.7,30.25,NNE,22,2.8,4.6,84,0.00,-SN,,0.00,WeatherDisplay:10.37,2013-04-09 03:53:00,
2013-04-08 21:58:00,13.5,9.6,30.25,NNW,338,3.9,4.6,84,0.00,-SN,,0.00,WeatherDisplay:10.37,2013-04-09 03:58:00,
2013-04-08 22:00:00,13.5,9.6,30.25,NE,45,3.2,4.2,84,0.00,-SN,,0.00,WeatherDisplay:10.37,2013-04-09 04:00:00,
2013-04-08 22:02:00,13.5,9.6,30.25,NNE,22,3.4,4.6,84,0.00,-SN,,0.00,WeatherDisplay:10.37,2013-04-09 04:02:00,
2013-04-08 22:07:00,13.3,9.4,30.26,NE,45,5.6,5.8,84,0.00,-SN,,0.00,WeatherDisplay:10.37,2013-04-09 04:07:00,
2013-04-08 22:12:00,13.3,9.4,30.26,NNW,338,5.8,8.1,84,0.00,-SN,,0.00,WeatherDisplay:10.37,2013-04-09 04:12:00,
2013-04-08 22:17:00,13.1,9.2,30.26,West,270,3.2,6.9,84,0.00,-SN,,0.00,WeatherDisplay:10.37,2013-04-09 04:17:00,
2013-04-08 22:22:00,13.1,9.2,30.26,NNW,338,4.2,5.8,84,0.00,-SN,,0.00,WeatherDisplay:10.37,2013-04-09 04:22:00,
2013-04-08 22:27:00,13.1,9.2,30.26,NNE,22,3.5,4.6,84,0.00,-SN,,0.00,WeatherDisplay:10.37,2013-04-09 04:27:00,
2013-04-08 22:32:00,13.1,9.2,30.26,ENE,68,2.7,3.5,84,0.00,-SN,,0.00,WeatherDisplay:10.37,2013-04-09 04:32:00,
2013-04-08 22:37:00,13.1,9.2,30.26,North,360,4.2,5.8,84,0.00,-SN,,0.00,WeatherDisplay:10.37,2013-04-09 04:37:00,
2013-04-08 22:42:00,13.1,9.4,30.26,WNW,292,3.0,5.8,85,0.00,-SN,,0.00,WeatherDisplay:10.37,2013-04-09 04:42:00,
2013-04-08 22:47:00,13.1,9.4,30.26,East,90,2.5,2.7,85,0.00,-SN,,0.00,WeatherDisplay:10.37,2013-04-09 04:47:00,
2013-04-08 22:52:00,13.1,9.4,30.27,NE,45,4.2,5.8,85,0.00,-SN,,0.00,WeatherDisplay:10.37,2013-04-09 04:52:00,
2013-04-08 22:57:00,13.1,9.4,30.27,North,360,5.3,5.8,85,0.00,-SN,,0.00,WeatherDisplay:10.37,2013-04-09 04:57:00,
2013-04-08 23:02:00,13.1,9.7,30.27,NE,45,3.5,4.6,86,0.00,-SN,,0.00,WeatherDisplay:10.37,2013-04-09 05:02:00,
2013-04-08 23:07:00,13.1,9.7,30.26,ENE,68,3.1,3.5,86,0.00,-SN,,0.00,WeatherDisplay:10.37,2013-04-09 05:07:00,
2013-04-08 23:12:00,13.1,9.7,30.26,NNE,22,5.7,6.9,86,0.00,-SN,,0.00,WeatherDisplay:10.37,2013-04-09 05:12:00,
2013-04-08 23:17:00,13.1,10.0,30.26,North,360,3.9,5.3,87,0.00,-SN,,0.00,WeatherDisplay:10.37,2013-04-09 05:17:00,
2013-04-08 23:22:00,13.1,10.0,30.26,NW,315,5.3,6.9,87,0.00,-SN,,0.00,WeatherDisplay:10.37,2013-04-09 05:22:00,
2013-04-08 23:27:00,13.1,9.4,30.26,WNW,292,6.0,7.8,85,0.00,-SN,,0.00,WeatherDisplay:10.37,2013-04-09 05:27:00,
2013-04-08 23:32:00,13.1,9.4,30.25,NNE,22,4.9,5.8,85,0.00,-SN,,0.00,WeatherDisplay:10.37,2013-04-09 05:32:00,
2013-04-08 23:37:00,13.1,9.2,30.25,NW,315,5.9,8.1,84,0.00,-SN,,0.00,WeatherDisplay:10.37,2013-04-09 05:37:00,
2013-04-08 23:42:00,13.3,9.4,30.25,NNW,338,6.5,7.8,84,0.00,-SN,,0.00,WeatherDisplay:10.37,2013-04-09 05:42:00,
2013-04-08 23:47:00,13.3,9.4,30.25,NNE,22,5.6,8.1,84,0.00,-SN,,0.00,WeatherDisplay:10.37,2013-04-09 05:47:00,
2013-04-08 23:52:00,13.3,9.4,30.26,NNW,338,5.5,9.2,84,0.00,-SN,,0.00,WeatherDisplay:10.37,2013-04-09 05:52:00,
2013-04-08 23:57:00,13.3,9.4,30.26,NNW,338,6.0,8.1,84,0.00,-SN,,0.00,WeatherDisplay:10.37,2013-04-09 05:57:00,